Home   Weather   Meppen   Past weeks

Flag for Germany Past Weather in Meppen, Lower Saxony, Germany — Yesterday and Last 2 Weeks

Now
50 °F

Partly sunny.


Feels Like: 49 °F
Forecast: 38 / 51 °F
Wind: 3 mph from West

Location: Meppen

Current Time: Apr 27, 2017 at 5:13:26 pm

Latest Report: Apr 27, 2017 at 4:00 pm


Visibility: 28 mi

Pressure: 29.98 "Hg

Humidity: 48%

Dew Point: 31 °F

Location of MeppenLocation

Past Weather in Meppen — Graph

°F

Meppen Temperature Yesterday

Maximum temperature yesterday: 49 °F (at 1:00 pm)
Minimum temperature yesterday: 30 °F (at 7:00 am)
Average temperature yesterday: 41 °F

High & Low Weather Summary for the Past Weeks

 TemperatureHumidityPressure
High59 °F (Apr 21, 3:00 pm)97% (Apr 14, 4:00 am)30.65 "Hg (Apr 14, 4:00 am)
Low25 °F (Apr 20, 6:00 am)30% (Apr 20, 3:00 pm)29.64 "Hg (Apr 25, 6:00 am)
Average44 °F71%30.12 "Hg
* Reported Apr 12 4:00 pm — Apr 27 4:00 pm, Meppen, Weather by CustomWeather, © 2017

Note: Actual official high and low records may vary slightly from our data, if they occured in-between our weather recording intervals... More about our weather records

Advertising

Meppen Weather History for the Previous 24 Hours

Scroll right to see more
 ConditionsComfort  
Time TempWeatherWind HumidityBarometerVisibility
4:00 pm
Thu, Apr 27
50 °FPartly sunny.3 mph48%29.98 "Hg28 mi
3:00 pm50 °FPartly sunny.5 mph48%29.98 "Hg28 mi
1:00 pm48 °FPartly sunny.3 mph47%29.99 "Hg28 mi
12:00 pm47 °FPartly sunny.3 mph52%30.01 "Hg28 mi
10:00 am45 °FPassing clouds.2 mph61%30.01 "Hg25 mi
9:00 am43 °FPassing clouds.N/A73%30.01 "Hg25 mi
7:00 am30 °FFog.N/A96%29.99 "Hg19 mi
6:00 am30 °FFog.No wind94%29.99 "Hg19 mi
4:00 am31 °FChilly.1 mph94%29.99 "Hg11 mi
3:00 am30 °FChilly.No wind95%29.99 "Hg19 mi
1:00 am33 °FChilly.No wind92%29.99 "Hg19 mi
12:00 am36 °FChilly.1 mph85%29.99 "Hg47 mi
10:00 pm
Wed, Apr 26
39 °FChilly.1 mph77%29.97 "Hg47 mi
9:00 pm42 °FQuite cool.N/A73%29.95 "Hg47 mi
7:00 pm45 °FCool.3 mph61%29.93 "Hg47 mi
6:00 pm47 °FCool.N/A55%29.92 "Hg47 mi
Weather by CustomWeather, © 2017

See weather overviewHow to use our weather pages